| time (UTC) | temp F | wind direction | speed knots | gust knots | rain 1hr in | rain 24hr in | rain mn in | humidity % | barometer mb |
| 20260506160009 | 57 | 24 | 0.0 | 0.0 | 0.02 | 0.02 | 0.02 | 92 | 1005.5 |
| 20260506154502 | 58 | 41 | 0.0 | 0.0 | 0.01 | 0.01 | 0.01 | 91 | 1005.7 |
| 20260506153100 | 58 | 170 | 0.0 | 0.0 | 0.01 | 0.01 | 0.01 | 90 | 1005.8 |
| 20260506151610 | 59 | 46 | 0.0 | 0.0 | 0.00 | 0.00 | 0.00 | 88 | 1005.9 |
| 20260506150048 | 59 | 173 | 0.0 | 0.0 | 0.00 | 0.00 | 0.00 | 86 | 1006.2 |
| 20260506144603 | 60 | 248 | 0.0 | 0.0 | 0.00 | 0.00 | 0.00 | 83 | 1006.2 |
| 20260506143053 | 60 | 279 | 0.0 | 0.0 | 0.00 | 0.00 | 0.00 | 83 | 1006.4 |
| 20260506141526 | 60 | 32 | 0.0 | 0.0 | 0.00 | 0.00 | 0.00 | 83 | 1006.2 |
| 20260506140010 | 60 | 57 | 0.0 | 0.0 | 0.00 | 0.00 | 0.00 | 84 | 1006.0 |
| 20260506134558 | 59 | 49 | 0.0 | 0.0 | 0.00 | 0.00 | 0.00 | 85 | 1005.9 |
| 20260506133051 | 57 | 77 | 0.0 | 0.0 | 0.00 | 0.00 | 0.00 | 89 | 1005.8 |
| 20260506131546 | 56 | 82 | 0.0 | 0.0 | 0.00 | 0.00 | 0.00 | 91 | 1006.1 |
| 20260506130115 | 55 | 142 | 0.0 | 0.0 | 0.00 | 0.00 | 0.00 | 94 | 1006.2 |
| 20260506124546 | 53 | 117 | 0.0 | 0.0 | 0.00 | 0.00 | 0.00 | 95 | 1006.5 |
| 20260506123010 | 52 | 117 | 0.0 | 0.0 | 0.00 | 0.00 | 0.00 | 96 | 1006.6 |
| 20260506121604 | 52 | 66 | 0.0 | 0.0 | 0.00 | 0.00 | 0.00 | 97 | 1006.7 |
| 20260506120042 | 51 | 77 | 0.0 | 0.0 | 0.00 | 0.01 | 0.00 | 97 | 1006.7 |
| 20260506114508 | 49 | 128 | 0.0 | 0.0 | 0.00 | 0.01 | 0.00 | 97 | 1006.4 |
| 20260506113023 | 49 | 117 | 0.0 | 0.0 | 0.00 | 0.01 | 0.00 | 96 | 1006.6 |
| 20260506111540 | 48 | 123 | 0.0 | 0.0 | 0.00 | 0.01 | 0.00 | 96 | 1006.8 |
| 20260506110010 | 48 | 182 | 0.0 | 0.0 | 0.00 | 0.01 | 0.00 | 96 | 1006.8 |
| 20260506104614 | 47 | 182 | 0.0 | 0.0 | 0.00 | 0.01 | 0.00 | 96 | 1006.9 |
| 20260506103058 | 47 | 182 | 0.0 | 0.0 | 0.00 | 0.01 | 0.00 | 96 | 1006.9 |
| 20260506101523 | 47 | 182 | 0.0 | 0.0 | 0.00 | 0.01 | 0.00 | 96 | 1006.8 |
| 20260506100104 | 47 | 182 | 0.0 | 0.0 | 0.00 | 0.01 | 0.00 | 95 | 1006.8 |
| 20260506094526 | 47 | 182 | 0.0 | 0.0 | 0.00 | 0.01 | 0.00 | 95 | 1006.7 |
| 20260505200007 | 74 | 69 | 0.0 | 0.0 | 0.00 | 0.01 | 0.01 | 43 | 1002.9 |
| 20260505194555 | 74 | 327 | 0.0 | 0.0 | 0.00 | 0.01 | 0.01 | 44 | 1003.2 |
| 20260505193102 | 74 | 5 | 0.0 | 0.0 | 0.00 | 0.01 | 0.01 | 45 | 1003.2 |
| 20260505191605 | 74 | 142 | 0.0 | 0.0 | 0.00 | 0.01 | 0.01 | 44 | 1003.4 |
| 20260505190119 | 74 | 128 | 0.0 | 0.0 | 0.00 | 0.01 | 0.01 | 43 | 1003.6 |
| 20260505184609 | 74 | 87 | 0.0 | 0.0 | 0.00 | 0.01 | 0.01 | 43 | 1003.5 |
| 20260505183053 | 75 | 16 | 0.0 | 0.0 | 0.00 | 0.01 | 0.01 | 43 | 1003.6 |
| 20260505181502 | 74 | 36 | 0.0 | 0.0 | 0.00 | 0.01 | 0.01 | 44 | 1004.0 |
| 20260505180100 | 74 | 57 | 0.0 | 0.0 | 0.00 | 0.01 | 0.01 | 43 | 1004.4 |
| 20260505174556 | 74 | 30 | 0.0 | 0.0 | 0.00 | 0.01 | 0.01 | 43 | 1004.6 |
| 20260505173046 | 75 | 308 | 0.0 | 0.0 | 0.00 | 0.01 | 0.01 | 45 | 1004.6 |
| 20260505171538 | 74 | 246 | 0.0 | 0.0 | 0.00 | 0.01 | 0.01 | 45 | 1004.6 |
| 20260505170011 | 74 | 16 | 0.0 | 0.0 | 0.00 | 0.01 | 0.01 | 43 | 1004.8 |
| 20260505164604 | 74 | 294 | 0.0 | 0.0 | 0.00 | 0.01 | 0.01 | 46 | 1004.8 |
| 20260505163107 | 73 | 119 | 0.0 | 0.0 | 0.00 | 0.01 | 0.01 | 46 | 1005.3 |
| 20260505161542 | 71 | 47 | 0.0 | 0.0 | 0.00 | 0.01 | 0.01 | 49 | 1005.7 |